South Chatham, MA (02659)

8:28 AM EDT on March 25, 2017 (GMT -0400)
| | Change Station

Elev -9999 ft 0.00 °N, 0.00 °E | Updated

Light Rain
Light Rain
°F
Feels Like °F
N
Wind Variable Wind from North
Gusts mph

Today
High -- | Low -- °F
--% Chance of Precip.
Yesterday
High -- | Low -- °F
Precip. -- in
Pressure 30.17 in
Visibility 10.0 miles
Clouds Few 3100 ft
Mostly Cloudy 10000 ft
Dew Point Not available.
Humidity Not available.
Rainfall --
Snow Depth Not available.
6:34 AM 6:58 PM
Waning Crescent, 8% visible
METAR KCQX 251152Z AUTO 35007KT 310V010 10SM -RA FEW031 BKN100 07/03 A3016 RMK AO2 RAB43 SLP215 P0000 60000 T00720033 10072 20050 53028
Pressure 30.17 in
Visibility 10.0 miles
Clouds Few 3100 ft
Mostly Cloudy 10000 ft
Dew Point Not available.
Humidity Not available.
Rainfall --
Snow Depth Not available.
6:34 AM 6:58 PM
Waning Crescent, 8% visible
METAR KCQX 251152Z AUTO 35007KT 310V010 10SM -RA FEW031 BKN100 07/03 A3016 RMK AO2 RAB43 SLP215 P0000 60000 T00720033 10072 20050 53028

Get Severe Weather Alerts

Thanks for signing up!

Be on the lookout for a verification email in your inbox.

You'll start receiving the daily forecast at 8 AM.

×

10-Day Weather Forecast

Almanac

Astronomy

Mar. 25, 2017 Rise Set
Actual Time
Civil Twilight
Nautical Twilight
Astronomical Twilight
Moon
Length of Visible Light
Length of Day
Tomorrow will be .
, % of the Moon is Illuminated

Today's Extremes

State Highs State Lows

Community

WunderPhotos

Upload Photos

1,962,540 photos uploaded!

WunderBlog® & News

Nearby

Air Quality

  Air Quality AQ Index Pollutant
Not available.

Snow Depth

Station Depth Elevation

Earthquake Activity

City Distance Mag. Time & Date
Minimum magnitude displayed is 2.5.

Earthquake Activity

City Distance Mag. Time & Date
Minimum magnitude displayed is 2.5.

Coastal Water Temperatures

Place Temperature

Stations

Nearby Weather Stations

Station Location Temp. Windchill Dew Point Humidity Wind Precip. Elev Updated Type
                   

Watches & Warnings

There are currently no watches in effect.